Theta_e
358 365 366 363 364 365 366 365 363 362 361 360 360 362 362 362 362 364 364 364 364 364 366 363 362 361 360 358 359 360 361 359 357 356 354 351 350 348 346 346 348 342 343
362 364 365 365 364 365 365 364 363 361 360 360 361 363 362 362 363 364 364 364 363 364 365 363 361 360 359 358 359 360 361 359 357 355 354 352 350 348 347 346 345 342 342
362 365 362 364 365 364 365 365 363 361 360 360 361 362 362 363 363 364 364 365 363 363 364 364 362 361 361 360 361 361 361 361 358 354 353 353 350 348 347 345 344 342 341
364 365 362 363 364 363 364 364 363 362 362 361 362 362 362 363 363 364 363 364 363 362 361 362 361 360 360 360 360 360 360 359 359 355 354 352 348 347 346 344 343 342 341
366 364 366 363 363 361 362 363 364 364 364 363 363 363 363 363 363 363 363 364 362 359 360 360 362 362 360 360 359 359 359 359 359 359 355 353 351 347 345 344 342 341 340
364 364 363 364 363 362 361 362 362 363 364 364 364 363 363 363 362 362 363 363 361 360 359 360 362 361 359 357 355 353 349 350 356 357 357 349 352 346 345 344 342 341 339
360 363 364 362 362 361 360 361 361 362 363 364 363 363 363 363 362 362 363 363 361 360 359 358 359 360 358 353 351 348 347 350 350 349 355 354 350 348 345 343 341 340 338
361 362 366 362 361 361 360 360 361 362 362 363 363 363 362 362 362 362 363 362 362 360 359 357 357 356 355 352 348 346 346 351 346 348 352 355 347 346 344 342 340 339 337
365 363 365 365 364 360 360 360 359 360 361 362 362 362 362 362 361 362 361 362 362 361 359 357 355 354 352 349 347 345 347 349 348 350 353 353 348 346 344 342 340 338 337
356 358 364 366 365 365 362 360 359 359 360 360 361 361 361 361 361 361 359 361 362 360 359 356 353 351 349 348 347 344 346 349 344 349 354 351 349 346 344 342 340 338 337
344 350 356 358 363 364 362 363 359 359 359 359 358 359 359 356 358 357 355 360 362 360 358 356 353 351 348 346 345 344 345 341 341 348 353 350 349 347 344 342 340 338 337
332 338 349 356 360 363 361 364 364 361 358 356 355 356 354 351 352 351 354 360 360 360 358 356 354 351 347 341 342 343 338 339 339 347 353 350 350 347 345 342 340 338 338
321 324 335 350 362 363 358 361 362 361 361 359 358 358 356 349 351 350 350 354 355 357 353 353 353 350 346 344 340 338 336 339 341 347 351 351 351 348 345 342 340 338 337
321 323 324 328 348 358 358 358 360 359 361 359 359 360 357 352 351 349 346 346 349 348 348 348 347 350 349 347 342 338 337 342 345 350 352 352 351 349 346 343 340 339 337
322 324 326 329 331 344 360 360 360 358 359 361 361 360 358 354 352 350 348 347 346 347 346 346 347 349 349 346 342 339 336 342 346 349 353 352 352 350 346 343 341 339 338
327 328 330 330 333 332 351 360 360 358 358 362 361 361 361 357 354 352 351 349 348 348 346 346 347 348 348 344 342 340 339 340 347 350 352 353 352 349 347 344 341 339 339
329 332 333 333 332 334 339 348 355 353 355 359 359 363 362 361 358 356 351 350 350 349 349 348 348 350 347 345 344 342 342 342 344 351 354 356 349 349 347 345 342 339 340
329 331 334 334 335 334 335 342 347 348 354 355 356 358 361 361 359 356 353 351 352 351 349 346 347 345 344 343 342 342 343 345 349 352 354 354 352 346 345 345 343 339 340
327 328 330 333 334 336 335 337 347 354 352 353 353 354 360 357 356 356 355 352 355 350 348 347 346 346 343 343 342 343 346 346 349 348 352 353 351 347 343 344 341 339 337
323 324 325 325 330 336 332 334 338 341 350 355 353 352 359 360 358 357 354 355 351 350 348 348 350 347 345 343 342 341 345 348 349 349 351 350 348 346 345 342 339 335 331
323 323 324 324 326 326 330 328 331 335 344 349 356 358 357 359 358 358 352 356 354 346 351 351 349 349 345 347 344 341 347 350 350 350 351 348 345 343 342 340 335 331 326
321 321 322 323 325 324 322 332 330 338 339 341 347 356 355 357 358 356 351 355 356 351 346 346 351 345 345 347 341 339 335 337 336 336 340 343 340 341 337 336 328 326 319
319 320 320 322 323 323 325 324 332 334 343 343 344 347 352 356 359 358 354 357 357 353 348 346 345 348 343 346 350 338 331 329 335 327 326 333 334 330 324 320 316 317 318
317 319 320 322 323 323 325 324 327 329 331 336 341 342 348 354 356 358 360 358 359 355 353 351 350 342 341 346 348 345 349 343 334 326 323 322 323 318 315 314 315 317 317
317 318 319 321 322 323 324 324 321 324 327 333 337 349 356 357 354 354 358 357 356 355 355 354 353 349 347 338 347 347 347 343 344 338 327 314 313 312 312 316 315 316 318
318 318 319 320 320 321 321 322 323 323 325 327 334 337 340 342 347 356 354 357 355 356 354 353 353 353 352 348 344 342 347 342 337 337 332 322 313 309 311 313 317 317 317
Wind_Speed
8 14 10 9 9 8 8 11 14 14 15 16 15 14 15 16 16 16 15 13 11 12 13 13 13 12 12 12 11 10 10 10 11 12 11 11 11 10 10 10 8 15 14
11 13 11 10 10 11 9 10 13 14 14 16 15 14 15 15 15 14 14 13 12 13 13 14 13 12 12 11 10 9 9 10 10 11 11 12 11 11 12 13 15 14 13
12 13 13 8 9 11 9 11 12 13 13 15 14 13 13 15 14 13 13 12 12 13 13 13 13 12 11 10 9 9 8 9 9 8 8 3 12 10 11 12 13 13 13
12 11 11 8 8 10 10 9 12 13 12 12 13 13 13 13 14 13 11 11 11 12 13 13 12 11 10 9 8 8 7 7 8 10 9 6 11 10 11 12 12 11 12
12 11 12 9 8 9 10 8 9 11 12 12 11 11 11 12 12 12 11 9 10 12 12 12 11 9 9 8 7 6 6 6 7 11 5 6 8 10 9 9 13 13 14
11 12 14 10 9 10 11 10 9 9 10 11 11 11 11 11 10 10 10 9 9 10 11 11 10 9 8 7 6 4 3 5 9 12 4 6 8 11 10 11 13 13 12
8 9 12 7 6 7 8 10 11 10 10 11 11 11 11 11 10 10 10 9 9 9 9 10 10 8 7 6 5 3 2 5 13 4 7 4 12 10 11 12 12 12 11
8 5 11 9 6 6 6 6 7 8 10 10 11 12 11 10 10 10 10 10 9 9 8 9 8 7 6 5 4 3 2 7 10 4 5 7 12 11 12 11 11 12 11
7 7 7 10 8 6 5 6 6 6 7 9 10 10 11 10 10 10 10 10 10 9 8 8 7 7 6 6 5 3 2 7 12 4 6 8 11 12 12 12 11 11 10
7 5 5 5 10 8 10 8 7 7 7 7 8 9 10 10 10 10 9 10 10 10 9 8 7 6 6 6 5 4 4 8 11 6 5 10 14 13 13 12 11 10 10
1 4 4 5 6 7 8 11 10 9 9 8 9 9 9 11 13 14 13 14 11 11 10 9 7 7 7 7 6 5 7 7 4 4 4 16 14 13 13 12 11 10 9
4 5 3 3 4 6 5 7 9 10 10 11 11 12 11 12 10 12 12 10 10 10 10 10 9 8 9 8 9 9 8 4 5 4 6 17 14 14 14 13 11 10 9
5 5 8 3 5 8 6 6 5 6 7 8 12 11 11 9 9 9 8 9 9 11 9 12 11 9 11 6 6 5 5 5 4 4 13 16 14 14 14 13 11 10 8
10 7 7 8 7 8 7 6 7 6 7 7 10 13 10 8 9 9 9 10 11 10 12 10 8 8 6 7 7 6 7 6 4 3 13 16 14 14 14 13 12 10 8
11 12 10 9 7 10 9 8 9 8 8 9 9 12 11 8 8 9 9 9 9 10 10 10 9 7 8 8 7 8 8 7 5 4 7 16 13 14 15 13 12 11 9
13 13 13 12 9 9 10 10 10 9 10 9 9 10 14 11 9 8 10 10 10 10 10 10 9 8 8 8 8 8 8 7 7 5 5 11 11 14 14 13 12 11 10
11 13 13 13 12 11 12 12 11 11 10 10 11 12 12 12 12 12 10 10 10 9 12 10 9 8 8 7 8 7 8 9 7 6 6 8 12 13 14 13 12 10 12
10 11 12 11 13 13 13 12 10 11 11 11 11 10 13 12 12 12 11 10 9 9 10 10 10 10 9 9 8 8 8 6 6 6 7 8 8 9 11 13 12 10 13
9 11 12 13 13 12 12 12 11 12 11 11 11 10 13 13 14 12 11 10 10 9 10 10 10 9 9 8 8 7 6 6 6 7 6 8 10 9 6 10 11 13 14
9 10 11 12 15 13 7 9 11 11 10 10 12 12 13 12 15 13 11 12 6 9 10 10 10 10 9 9 9 8 6 5 5 5 5 6 9 10 9 10 10 10 12
8 9 12 13 15 12 11 9 9 10 10 10 13 17 15 14 14 12 11 12 11 8 9 12 11 12 10 9 8 7 6 1 2 3 5 5 7 6 6 8 6 6 7
8 9 11 13 14 12 11 9 9 11 9 12 13 14 15 16 15 11 11 12 14 12 6 6 14 12 12 11 11 10 8 5 4 6 5 5 7 4 5 6 7 8 6
7 8 10 12 13 12 14 10 9 8 10 11 11 12 13 16 14 14 15 14 13 12 12 10 8 11 10 11 15 9 9 8 11 3 6 4 5 7 8 8 8 7 5
7 8 9 11 12 12 14 12 13 9 10 11 10 12 11 15 17 17 17 16 13 12 13 13 12 11 10 7 10 13 10 4 8 6 4 6 6 7 7 7 6 5 3
6 8 9 11 12 13 12 12 11 11 10 10 11 14 11 11 16 17 17 16 12 12 12 13 13 14 11 8 8 10 12 8 7 6 10 5 5 5 6 4 3 4 2
9 10 11 13 14 13 14 13 13 14 12 11 11 13 12 11 12 16 17 15 11 13 12 11 11 13 12 12 8 10 6 11 10 8 7 10 8 3 5 4 4 3 2
Wind_Direction
160 130 140 141 135 139 149 154 149 150 152 151 159 162 155 148 145 143 138 134 133 134 133 133 131 131 130 127 123 120 120 116 109 106 104 95 91 84 72 41 37 63 58
140 141 142 142 137 139 143 152 148 152 154 154 163 165 157 150 146 143 141 139 140 139 135 137 136 136 138 137 131 129 124 119 117 118 125 110 94 87 78 67 52 65 60
150 141 156 133 133 133 140 144 148 148 154 157 162 167 161 150 147 148 147 145 144 142 140 145 143 146 146 145 140 137 134 133 132 141 203 66 88 89 85 80 76 72 66
136 144 144 126 125 132 139 143 143 144 149 156 161 166 159 152 151 153 151 148 148 147 147 150 150 153 152 152 151 150 148 142 153 192 213 103 92 95 92 84 79 80 86
146 149 123 138 138 140 142 141 139 141 143 150 159 163 158 155 155 153 154 153 152 156 155 155 158 157 158 159 161 159 166 175 183 232 92 99 96 105 104 105 103 81 61
148 147 134 143 150 154 153 151 145 143 145 150 157 161 161 159 156 154 156 157 158 160 160 159 162 162 165 167 172 176 181 205 207 227 92 108 71 116 108 93 90 85 76
136 135 146 137 146 160 165 160 158 156 155 156 161 165 167 165 162 160 160 158 160 161 161 164 169 170 169 178 185 208 206 238 248 119 115 181 102 123 112 105 98 94 86
120 141 129 145 156 163 176 177 171 167 166 166 166 168 171 172 169 165 162 159 160 161 167 172 172 169 174 185 197 214 239 257 231 88 136 123 124 130 122 112 105 98 93
125 154 159 169 166 178 187 187 189 185 180 175 173 171 173 175 178 173 165 162 161 159 166 175 175 171 178 195 214 213 244 269 282 126 168 128 145 136 128 122 113 105 96
134 138 181 203 177 195 178 185 200 200 199 191 185 180 180 178 183 181 167 171 168 165 171 178 186 184 193 198 212 219 238 249 254 160 187 98 146 143 133 126 119 115 106
111 176 201 200 200 209 216 164 186 203 205 200 202 197 180 211 193 190 203 160 180 177 175 184 193 197 200 213 209 221 242 247 189 212 162 137 152 145 140 135 131 125 111
337 315 278 237 255 228 234 211 201 201 208 207 205 198 217 215 205 212 190 168 186 192 185 186 194 201 214 222 184 198 237 239 240 170 114 146 160 153 148 143 140 131 117
358 311 308 258 257 271 227 232 219 211 210 211 220 213 211 207 205 206 199 197 209 202 210 192 192 218 220 238 233 234 252 236 233 208 121 154 164 158 153 151 148 138 126
347 339 338 316 283 253 268 217 251 230 223 214 209 209 221 216 208 212 213 206 205 208 219 224 213 221 215 226 256 252 234 250 223 227 133 158 168 163 161 158 156 145 136
332 333 325 331 308 284 238 259 252 247 217 235 222 208 216 217 219 215 218 221 213 216 208 220 228 194 210 217 224 227 235 231 257 262 145 165 171 163 163 166 160 152 143
330 324 323 311 304 282 249 235 249 241 244 227 231 219 212 219 211 227 219 215 223 218 219 217 210 205 218 218 213 228 234 236 223 229 189 156 169 163 166 168 165 160 150
330 331 329 310 300 288 270 245 235 246 227 244 231 216 215 211 221 230 225 220 213 219 227 217 215 211 219 211 225 213 230 227 228 216 232 156 161 174 167 171 171 165 149
348 350 342 336 313 292 281 267 244 246 233 229 234 223 212 214 218 219 231 226 213 221 214 215 212 212 217 215 219 221 207 225 208 200 217 164 164 165 169 174 168 161 151
27 13 2 353 351 322 283 273 255 249 244 237 231 229 205 218 210 215 226 235 216 218 218 217 214 218 211 225 216 219 219 222 198 199 180 170 160 157 170 161 146 141 130
47 35 22 12 4 346 303 270 260 250 243 246 240 229 215 216 213 205 222 222 228 224 217 215 217 208 228 209 219 188 222 208 206 193 163 167 163 155 155 158 145 129 126
35 22 15 9 7 0 352 318 259 243 233 227 242 240 220 214 225 202 213 218 213 226 233 208 210 218 206 215 208 184 131 316 30 107 158 160 129 149 142 137 132 135 122
20 16 13 4 2 356 356 339 299 294 252 243 230 232 227 218 210 202 201 221 212 211 218 242 226 212 212 194 211 194 163 158 72 43 24 94 128 126 107 105 122 103 117
5 5 7 0 357 356 349 344 345 272 270 264 250 230 221 226 205 205 202 223 210 217 214 208 213 240 219 201 214 213 209 219 141 106 37 62 121 112 101 97 101 102 110
356 353 353 352 353 354 351 341 341 315 289 283 260 252 228 221 226 216 216 215 214 208 218 217 206 198 225 250 202 230 246 306 176 147 109 54 71 90 106 113 101 99 130
334 341 337 337 342 339 341 340 325 317 320 304 273 269 251 236 222 228 220 222 213 219 210 217 211 207 204 206 244 231 218 212 220 169 154 135 90 77 95 98 106 127 158
326 332 330 331 333 332 329 328 320 309 305 303 298 282 253 246 226 220 225 216 206 224 220 207 221 221 214 215 222 250 246 211 201 187 151 144 123 111 126 149 146 158 170